Temperature
20 19 19 19 19 19 19 19 19 18 18 18 18 18 18 18 18 18 18 18 17 17 17 17 17 17 17 17 17 17 17 17 17 17 17 17 17 16 16 16 16 16 16
19 19 19 19 19 18 18 18 18 18 18 18 18 18 18 18 18 18 17 17 17 17 17 17 17 17 17 17 17 17 17 17 17 17 16 16 16 16 16 16 16 16 16
20 19 19 19 18 18 18 18 18 18 18 18 18 18 18 18 18 18 17 17 17 17 17 17 17 17 17 17 17 17 17 17 17 16 16 16 16 16 16 16 16 15 15
20 19 19 19 18 18 18 18 18 18 18 18 18 18 18 18 17 17 17 17 17 17 17 17 17 17 17 17 17 17 17 16 16 16 16 16 16 16 16 15 15 15 15
20 19 19 19 18 18 18 18 18 17 17 18 18 17 17 17 17 17 17 17 17 17 17 17 17 16 17 17 16 16 16 16 16 16 16 16 15 15 15 15 15 15 15
20 19 19 19 18 18 18 18 18 17 17 17 17 17 17 17 17 17 17 17 17 17 16 16 16 16 16 16 16 16 16 16 16 16 15 15 15 15 15 15 15 14 14
20 19 19 19 18 18 18 18 17 17 17 17 18 17 17 17 17 17 17 17 17 16 16 16 16 16 16 16 16 16 16 16 16 15 15 15 15 15 15 15 15 14 14
19 19 19 18 18 18 18 18 17 17 17 17 17 17 17 17 17 17 17 16 16 16 16 16 16 16 16 16 16 16 16 16 16 15 15 16 15 15 15 15 15 14 14
19 19 18 18 18 18 18 18 17 17 17 17 17 17 17 17 16 16 16 16 16 16 16 16 16 16 16 16 15 15 15 15 15 15 15 15 15 15 15 15 14 14 14
18 18 18 18 18 17 17 17 17 17 17 17 16 16 16 16 16 16 16 16 16 16 16 15 15 15 15 15 15 15 15 15 15 15 15 15 15 15 15 14 14 14 14
18 18 17 17 17 17 17 17 17 17 17 16 16 16 16 16 16 16 16 16 15 15 15 15 15 15 15 15 15 15 14 14 14 14 14 14 14 14 14 14 14 14 14
17 17 17 17 17 16 16 16 16 16 16 16 16 16 16 15 15 15 15 15 15 15 15 15 14 15 15 15 14 14 14 14 14 14 14 14 14 14 14 14 14 14 14
16 16 16 16 16 16 16 16 16 16 16 16 15 15 15 15 15 15 15 15 14 14 14 14 14 14 14 14 14 14 14 14 14 13 13 13 13 14 13 13 13 13 13
16 16 16 16 16 16 15 15 15 15 15 15 15 15 15 14 14 14 14 14 14 14 14 14 14 14 14 14 14 14 13 13 13 13 13 13 13 13 13 13 13 13 13
15 15 15 15 15 15 15 15 15 15 15 15 15 14 14 14 14 14 14 14 14 14 14 14 14 13 13 13 13 13 13 13 13 13 12 13 13 13 12 13 13 13 12
15 15 15 15 15 15 15 14 14 14 14 14 14 14 14 14 13 13 14 14 13 13 13 13 13 13 13 13 12 12 12 12 12 12 12 12 12 12 12 12 12 12 12
14 14 14 14 14 14 14 14 14 14 14 14 13 13 13 13 13 13 13 13 13 13 13 13 12 12 12 12 12 12 12 12 12 12 11 11 11 11 11 11 11 11 11
13 14 14 14 14 14 14 14 14 14 14 13 13 13 13 13 13 13 13 12 12 12 12 12 12 12 12 12 12 12 12 11 11 11 11 11 11 11 11 11 11 11 11
13 14 14 14 14 14 14 14 14 13 13 13 12 12 12 12 12 12 12 12 12 12 11 11 11 11 11 11 11 11 11 11 11 11 11 11 11 11 11 11 11 11 10
13 13 14 14 14 14 13 13 13 13 13 12 12 12 12 11 11 11 11 11 11 11 11 11 11 11 11 11 10 10 10 10 10 10 10 10 10 10 10 10 10 10 10
13 13 13 14 13 13 13 13 13 12 12 12 12 11 11 11 11 11 11 11 11 10 10 10 10 10 10 10 10 10 9 9 9 9 9 9 9 9 9 9 9 9 9
13 13 13 13 13 13 13 12 12 12 12 12 12 11 11 11 11 10 10 10 10 10 10 10 9 9 9 9 9 9 8 8 8 8 8 8 8 8 8 9 9 9 9
12 13 13 13 12 12 12 12 12 12 12 12 11 11 11 10 10 10 10 9 9 9 9 9 9 9 9 8 8 8 8 8 8 8 8 8 8 8 8 8 8 8 8
12 12 12 12 12 12 12 12 12 12 11 11 11 11 10 10 10 9 9 9 9 9 9 8 8 8 8 8 8 7 7 7 7 7 7 7 7 7 7 7 7 7 7
12 12 12 12 12 12 12 11 11 11 11 11 10 10 10 9 9 9 8 8 8 8 8 8 8 7 7 7 7 7 7 7 7 7 7 7 7 7 7 7 7 7 6
11 11 11 11 11 11 11 11 10 10 10 10 10 9 9 9 8 8 8 8 7 7 7 7 7 7 7 7 7 7 6 6 6 6 6 6 6 6 6 6 6 6 6
Wind_Speed
9 7 6 7 6 5 3 3 3 3 2 2 3 4 4 3 3 3 4 4 4 4 4 4 5 4 3 3 3 3 3 2 4 3 2 2 3 3 4 6 8 9 10
9 8 6 6 6 6 5 4 3 3 2 2 2 3 3 3 3 4 4 4 4 4 4 4 4 4 4 3 3 3 3 3 3 4 3 2 3 4 4 4 5 7 8
10 9 7 7 6 5 5 4 4 3 3 3 2 2 2 2 3 3 3 4 4 4 4 4 4 4 4 4 4 4 3 4 3 4 4 2 2 3 4 4 4 4 7
8 9 8 7 6 5 4 4 4 4 4 3 3 3 3 2 2 3 3 4 4 4 4 5 5 5 5 5 5 4 4 3 3 3 3 3 3 3 3 4 4 4 5
6 7 8 7 6 6 5 5 5 4 5 4 3 3 3 3 3 2 3 4 4 4 4 4 4 4 5 4 4 3 4 3 3 3 4 3 3 3 3 4 4 4 4
5 5 6 7 6 6 5 5 5 5 4 4 4 3 3 4 3 2 2 2 2 3 3 3 3 3 4 4 4 4 5 5 4 4 4 4 4 3 4 4 4 4 4
4 4 4 5 5 5 5 5 5 5 4 4 4 4 3 3 1 1 2 2 3 3 3 3 5 4 2 3 4 5 6 6 7 5 6 6 5 5 5 6 5 5 6
5 4 3 4 4 5 5 5 5 5 5 5 4 4 4 3 3 2 3 3 3 4 4 4 4 3 3 3 3 3 4 5 7 7 7 7 6 4 6 6 6 5 5
5 5 4 4 4 5 5 5 4 4 4 4 4 4 3 3 3 3 2 3 3 4 4 4 4 3 3 3 3 4 4 5 6 6 7 7 8 9 6 4 5 5 5
3 4 4 4 4 5 4 4 3 3 3 4 4 4 4 3 4 4 4 3 3 4 3 3 4 3 3 2 3 4 5 5 5 5 5 7 8 9 10 8 7 6 5
2 2 3 3 4 4 3 3 3 3 4 4 4 4 4 4 5 5 5 3 4 4 4 3 1 0 2 4 5 5 6 6 5 5 5 5 5 6 7 8 8 7 7
2 2 2 1 2 2 3 3 3 3 4 4 4 3 3 3 3 4 5 5 4 4 4 3 2 3 4 5 5 6 7 6 5 5 5 5 5 5 5 6 8 8 8
2 2 2 1 0 0 2 2 2 3 3 3 3 3 2 1 1 1 3 5 5 4 3 4 4 4 4 4 6 7 5 4 4 5 6 6 5 5 4 4 5 7 8
2 2 1 1 1 1 1 1 1 1 1 2 1 1 0 0 1 1 1 2 3 3 3 4 5 5 4 5 4 4 4 4 4 5 5 5 4 4 4 4 5 5 6
1 1 1 1 2 1 1 0 0 1 1 1 1 0 0 1 1 1 2 2 3 3 3 4 4 3 3 3 3 3 3 3 4 4 4 4 4 5 4 4 4 5 6
0 1 1 1 1 1 1 1 3 2 3 2 2 1 1 1 1 2 3 4 5 3 2 4 4 3 3 3 3 3 3 3 3 4 4 5 5 5 5 4 4 5 6
2 1 1 1 1 0 0 1 1 1 2 1 1 1 0 1 1 2 3 4 5 2 2 4 3 3 3 3 3 3 3 3 3 4 4 5 5 5 5 5 5 5 5
2 1 2 1 1 1 1 1 0 1 1 0 0 1 1 2 3 3 2 2 2 1 2 3 3 3 3 4 4 3 3 3 3 3 4 5 4 5 5 5 5 5 5
3 2 2 2 1 1 1 2 1 1 1 2 2 2 2 2 2 2 2 2 2 2 2 3 3 4 4 4 4 4 4 4 4 4 4 5 4 5 5 5 5 6 6
1 1 1 2 1 2 2 2 2 2 2 2 2 2 2 2 1 1 1 2 2 3 3 3 3 4 4 3 4 4 4 4 5 5 5 5 5 5 6 6 6 6 6
2 0 0 2 2 2 2 2 2 2 2 2 2 3 2 1 2 2 2 2 2 3 3 4 4 4 3 3 4 4 4 4 5 5 5 6 7 6 6 6 7 6 6
3 2 1 1 2 2 2 2 2 2 2 2 2 2 1 2 3 3 3 3 4 4 4 4 4 4 4 4 4 4 4 4 5 5 6 6 6 6 6 6 6 6 6
2 2 2 1 1 1 1 2 2 2 3 3 2 3 2 3 4 4 4 4 4 4 5 5 5 5 5 5 5 4 4 4 5 6 6 7 7 7 7 7 7 7 7
3 3 3 2 2 2 2 2 3 3 3 3 4 3 3 3 4 4 4 5 5 5 5 5 5 6 7 6 6 6 6 7 7 6 7 8 8 8 7 7 7 8 7
4 3 3 3 3 3 3 3 3 3 3 3 3 4 4 4 4 4 4 4 5 5 6 6 5 7 9 9 9 8 8 9 8 8 8 7 8 8 7 7 7 7 7
3 4 3 3 3 3 3 3 3 3 3 3 4 4 4 4 4 4 4 4 5 5 5 5 7 9 9 9 10 10 9 10 11 11 9 7 7 6 7 6 8 7 7
Wind_Direction
178 179 179 177 187 192 199 192 187 198 210 200 196 194 199 200 202 206 228 226 226 232 239 234 237 248 256 259 244 235 234 227 252 263 243 206 196 191 174 186 191 191 199
178 173 181 173 178 186 192 191 187 186 196 204 208 205 210 207 207 216 234 236 233 236 246 247 244 247 246 257 267 260 247 229 231 245 243 216 208 191 183 203 200 207 202
178 175 179 178 177 184 188 183 183 182 189 195 189 198 210 217 218 227 240 247 246 240 242 245 248 244 242 245 247 258 257 255 231 237 239 222 209 197 187 211 221 217 219
174 174 172 175 178 180 182 180 186 186 189 200 192 200 212 228 231 240 246 246 248 248 245 243 245 241 239 245 246 249 260 264 244 243 238 219 213 204 196 214 228 227 232
165 168 170 171 173 179 181 181 189 194 200 196 200 207 220 229 242 247 246 240 246 252 252 247 245 242 233 241 254 251 251 252 251 247 244 234 228 204 217 229 234 232 234
157 166 164 170 176 185 185 183 188 195 202 200 203 207 222 240 257 230 240 262 263 266 271 272 256 246 234 231 249 260 253 247 250 255 258 246 232 220 218 231 236 245 247
163 168 166 167 174 182 193 187 196 199 202 205 209 212 211 237 255 188 235 248 258 261 264 272 273 268 249 247 245 254 255 246 236 243 254 255 244 225 221 231 232 235 242
167 173 172 174 177 179 189 195 201 202 205 208 215 219 215 223 202 196 243 229 254 255 248 250 259 272 270 272 250 249 251 247 241 240 250 260 259 245 228 229 235 241 243
173 177 179 181 181 185 193 201 200 201 207 209 212 215 217 203 175 181 205 244 258 267 258 258 254 242 248 265 263 258 258 260 261 261 250 248 247 244 240 236 234 236 253
181 180 174 182 189 194 197 201 207 208 218 223 223 216 210 194 181 184 198 251 266 269 259 251 249 242 243 242 253 261 262 267 276 275 264 259 252 243 229 227 230 235 246
157 167 167 185 202 194 192 193 210 216 219 223 226 221 207 195 182 185 195 237 267 274 275 271 266 157 265 258 252 256 258 272 277 268 260 254 249 244 234 228 228 232 238
109 123 138 173 227 196 185 204 214 224 223 221 221 228 217 178 165 193 210 242 275 281 283 293 308 289 277 269 258 260 267 274 272 274 271 264 258 253 244 238 229 230 237
107 104 98 85 96 106 201 209 215 218 226 228 214 222 224 183 144 176 218 249 260 265 290 307 313 293 274 265 252 252 259 259 260 267 269 268 266 260 253 242 243 239 242
121 127 124 130 187 176 165 229 236 287 266 249 239 238 271 99 41 352 291 276 282 282 300 298 286 267 262 258 259 254 247 253 257 263 272 276 278 269 262 255 250 245 248
164 178 188 222 227 177 147 10 231 11 32 284 260 223 276 278 284 271 251 265 274 278 283 277 266 267 267 259 252 251 253 253 258 265 271 279 280 276 270 268 255 253 252
243 253 263 246 214 201 148 121 64 85 73 51 63 65 54 36 275 277 273 276 272 254 244 264 266 268 273 278 276 272 268 269 272 271 268 270 276 279 276 272 266 256 257
355 339 318 335 337 352 157 180 187 74 88 61 34 11 174 275 295 283 292 309 300 268 244 269 279 291 294 299 297 294 291 289 287 292 289 281 280 282 282 278 273 270 266
337 358 349 349 9 351 323 292 205 156 127 202 229 247 226 241 257 264 289 341 311 280 281 294 302 301 301 310 317 320 313 307 300 299 296 295 295 292 288 282 276 277 278
326 344 359 341 358 7 346 344 10 34 80 75 72 39 15 325 291 288 293 294 292 312 316 314 316 317 320 321 323 326 329 329 332 325 317 314 306 299 295 293 290 284 275
303 357 330 319 339 53 31 1 6 39 56 56 44 39 27 359 358 3 296 306 314 326 337 340 336 335 335 332 334 337 338 337 338 334 334 327 317 309 303 297 292 291 285
320 64 209 323 1 20 29 28 34 37 35 33 46 66 67 4 349 356 349 347 340 334 338 337 335 336 341 343 343 342 342 340 337 337 334 327 320 314 309 302 297 295 296
334 2 23 14 24 21 16 17 25 36 28 26 41 63 120 334 353 5 358 6 4 355 347 340 339 345 352 356 352 346 342 342 341 338 329 320 313 309 307 305 305 305 304
321 339 9 26 17 51 7 14 26 23 19 21 20 23 31 7 356 5 5 9 12 2 1 356 351 353 358 0 357 358 360 350 336 329 322 316 313 310 309 308 307 307 309
346 347 357 16 21 21 25 24 22 19 21 18 18 19 16 9 7 15 13 12 11 6 6 359 356 354 1 4 4 15 17 357 345 332 322 310 304 303 306 309 309 309 308
350 358 7 15 21 18 24 23 22 23 20 20 22 18 11 9 12 16 15 12 4 357 355 357 359 1 7 15 15 23 20 10 360 342 322 308 304 306 309 310 309 310 310
3 5 7 14 22 25 26 21 20 20 17 19 24 20 13 7 8 11 12 6 356 355 358 3 4 9 14 21 32 32 17 3 351 339 322 305 305 311 316 309 307 307 306
Height
1513 1515 1517 1519 1521 1523 1524 1526 1527 1529 1530 1531 1531 1532 1533 1533 1534 1534 1535 1535 1536 1536 1537 1538 1538 1538 1539 1539 1539 1539 1539 1540 1539 1538 1539 1539 1539 1539 1538 1538 1538 1538 1539
1511 1513 1515 1517 1519 1520 1522 1523 1525 1526 1527 1528 1529 1530 1530 1531 1531 1532 1532 1533 1533 1534 1534 1535 1535 1535 1535 1536 1536 1536 1536 1536 1536 1535 1535 1536 1536 1535 1535 1535 1535 1535 1535
1509 1511 1513 1515 1516 1518 1519 1521 1522 1523 1524 1526 1527 1527 1528 1528 1529 1529 1530 1530 1531 1531 1531 1531 1532 1532 1532 1532 1532 1533 1533 1533 1533 1533 1532 1532 1532 1532 1532 1532 1532 1532 1532
1507 1509 1510 1512 1513 1515 1517 1519 1520 1521 1522 1523 1524 1524 1525 1526 1526 1526 1527 1527 1527 1528 1528 1528 1529 1529 1528 1528 1529 1529 1529 1529 1530 1529 1529 1528 1528 1528 1528 1528 1528 1529 1529
1505 1506 1508 1509 1511 1513 1514 1516 1517 1519 1520 1520 1521 1521 1522 1523 1523 1524 1524 1524 1524 1524 1525 1525 1525 1525 1525 1525 1526 1525 1526 1526 1526 1526 1525 1525 1525 1524 1524 1525 1525 1525 1525
1502 1504 1506 1507 1509 1511 1512 1513 1515 1516 1517 1517 1518 1518 1519 1520 1521 1521 1521 1522 1522 1522 1521 1522 1522 1522 1522 1522 1522 1522 1522 1522 1521 1522 1522 1521 1521 1520 1521 1521 1521 1521 1521
1501 1502 1504 1505 1506 1508 1509 1510 1511 1512 1513 1514 1515 1515 1516 1516 1517 1518 1518 1518 1518 1518 1518 1518 1519 1519 1518 1518 1518 1517 1517 1517 1518 1518 1517 1517 1517 1516 1517 1516 1516 1516 1516
1498 1500 1501 1503 1503 1505 1506 1507 1508 1509 1510 1510 1511 1512 1512 1513 1514 1514 1514 1515 1514 1515 1515 1515 1515 1514 1514 1514 1513 1513 1513 1513 1513 1513 1513 1512 1512 1512 1513 1513 1512 1512 1512
1496 1497 1498 1500 1501 1502 1503 1504 1505 1506 1506 1507 1508 1509 1509 1510 1510 1511 1511 1511 1510 1511 1511 1511 1511 1510 1510 1510 1509 1508 1508 1508 1508 1508 1508 1508 1507 1507 1508 1508 1507 1507 1506
1493 1494 1495 1497 1498 1499 1500 1501 1502 1503 1504 1505 1505 1506 1506 1506 1507 1507 1507 1507 1506 1506 1507 1507 1507 1506 1506 1505 1505 1504 1504 1503 1503 1503 1503 1502 1502 1502 1502 1502 1502 1502 1501
1490 1491 1493 1494 1495 1496 1497 1498 1499 1500 1501 1502 1502 1502 1502 1503 1503 1503 1503 1503 1503 1503 1503 1503 1503 1502 1501 1501 1501 1500 1500 1500 1499 1498 1498 1497 1497 1496 1496 1496 1496 1496 1496
1488 1488 1490 1491 1492 1494 1494 1495 1496 1497 1498 1498 1498 1498 1499 1498 1499 1499 1500 1500 1500 1500 1500 1499 1499 1498 1498 1497 1497 1496 1496 1495 1495 1494 1493 1492 1492 1491 1490 1490 1490 1490 1490
1486 1486 1487 1488 1489 1490 1491 1492 1493 1494 1495 1495 1495 1495 1496 1495 1495 1495 1496 1496 1496 1496 1496 1495 1495 1494 1494 1493 1493 1492 1492 1491 1490 1489 1488 1488 1487 1486 1486 1485 1484 1484 1484
1484 1485 1486 1486 1487 1488 1488 1489 1490 1491 1492 1492 1492 1493 1493 1493 1492 1492 1492 1492 1492 1492 1492 1491 1491 1491 1490 1489 1488 1488 1487 1487 1486 1485 1484 1483 1483 1482 1481 1480 1479 1479 1478
1483 1484 1484 1485 1485 1486 1485 1486 1486 1487 1488 1488 1489 1489 1490 1490 1490 1489 1489 1489 1488 1488 1488 1488 1487 1487 1486 1485 1485 1484 1483 1483 1482 1481 1480 1479 1478 1477 1476 1475 1474 1473 1473
1482 1482 1482 1483 1484 1484 1483 1484 1484 1485 1485 1486 1486 1486 1486 1487 1487 1487 1486 1486 1486 1486 1485 1484 1484 1484 1483 1482 1481 1481 1480 1479 1478 1478 1476 1475 1474 1473 1471 1470 1469 1468 1467
1481 1481 1481 1481 1481 1482 1481 1482 1483 1483 1483 1483 1483 1484 1484 1484 1484 1484 1483 1483 1483 1483 1482 1482 1481 1481 1480 1479 1478 1477 1476 1476 1475 1474 1473 1471 1470 1469 1467 1466 1465 1464 1462
1481 1481 1480 1480 1480 1481 1480 1480 1481 1481 1480 1480 1481 1482 1482 1482 1482 1482 1481 1481 1480 1480 1480 1479 1479 1478 1477 1476 1475 1474 1473 1472 1471 1470 1469 1467 1466 1465 1463 1462 1460 1459 1458
1481 1481 1480 1480 1480 1480 1480 1479 1479 1479 1479 1479 1479 1479 1480 1479 1479 1479 1478 1478 1478 1477 1477 1477 1476 1475 1474 1473 1472 1471 1470 1469 1468 1466 1465 1463 1462 1461 1459 1457 1456 1454 1453
1480 1480 1479 1479 1479 1478 1478 1479 1479 1478 1478 1478 1478 1478 1478 1478 1477 1477 1476 1476 1476 1475 1475 1474 1473 1472 1471 1470 1469 1468 1467 1465 1464 1462 1461 1460 1458 1456 1454 1453 1451 1450 1448
1480 1479 1479 1479 1479 1479 1479 1479 1479 1479 1479 1479 1478 1478 1477 1477 1477 1476 1475 1474 1474 1473 1473 1472 1471 1470 1469 1467 1466 1464 1463 1462 1460 1459 1457 1456 1454 1452 1450 1448 1446 1445 1443
1479 1479 1479 1479 1479 1479 1479 1479 1479 1479 1479 1478 1478 1478 1477 1477 1476 1475 1474 1473 1473 1472 1471 1470 1469 1468 1466 1464 1463 1462 1460 1458 1457 1455 1454 1452 1450 1448 1446 1444 1442 1440 1439
1479 1479 1479 1479 1479 1478 1478 1478 1478 1478 1478 1478 1478 1477 1477 1476 1475 1474 1473 1472 1470 1470 1469 1468 1467 1465 1464 1461 1460 1459 1457 1455 1453 1452 1450 1448 1446 1444 1442 1440 1438 1436 1434
1480 1480 1479 1479 1478 1478 1478 1478 1478 1478 1478 1477 1477 1476 1476 1475 1474 1473 1471 1470 1469 1468 1467 1465 1464 1463 1461 1459 1458 1456 1454 1452 1450 1448 1446 1444 1442 1440 1438 1436 1434 1432 1430
1480 1480 1479 1479 1478 1478 1478 1478 1478 1478 1477 1477 1476 1476 1475 1474 1473 1471 1470 1469 1467 1466 1465 1463 1462 1460 1458 1456 1454 1452 1450 1449 1447 1444 1442 1440 1438 1436 1434 1432 1430 1428 1426
1481 1480 1480 1479 1479 1478 1478 1478 1478 1477 1477 1477 1476 1475 1474 1473 1472 1470 1469 1468 1466 1465 1463 1461 1460 1458 1455 1453 1451 1449 1447 1444 1442 1440 1438 1436 1434 1432 1430 1428 1426 1424 1422